Flag for India Weather for the Past 2 Weeks in New Okhla Industrial Development Authority, Uttar Pradesh, India

Now
66 °F

Haze.


Feels Like: 66 °F
Forecast: 52 / 74 °F
Wind: 5 mph from Northwest

Location: New Delhi Palam Airport

Current Time: Feb 14, 2016 at 8:46:44 PM

Latest Report: Feb 14, 2016 at 8:00 PM


Visibility: 2 mi

Pressure: 30.04 "Hg

Humidity: 60%

Dew point: 52 °F

Location of New Okhla Industrial Development AuthorityLocation

Historic Weather in New Okhla Industrial Development Authority — Graph

°F

New Okhla Industrial Development Authority Temperature Yesterday

Maximum temperature yesterday: 70 °F (at 2:00 PM)
Minimum temperature yesterday: 55 °F (at 5:30 AM)
Average temperature yesterday: 63 °F

High & Low Weather Summary for the Past Weeks

 TemperatureHumidityPressure
High79 °F (Feb 11, 3:00 PM)100% (Jan 31, 5:30 AM)30.12 "Hg (Jan 31, 5:30 AM)
Low43 °F (Feb 5, 6:30 AM)17% (Feb 11, 3:00 PM)29.80 "Hg (Feb 11, 2:30 AM)
Average62 °F60%29.98 "Hg
* Reported Jan 30 8:00 PM — Feb 14 7:30 PM, New Okhla Industrial Development Authority, Weather by CustomWeather, © 2016

Note: Actual official high and low records may vary slightly from our data, if they occured in-between our weather recording intervals... More about our weather records

Advertising

New Okhla Industrial Development Authority Weather History for the Previous 24 Hours

 ConditionsComfort  
Time TempWeatherWind HumidityBarometerVisibility
7:30 PM
Sun, Feb 14
66 °FHaze.6 mph52%30.01 "Hg2 mi
7:00 PM66 °FHaze.6 mph52%30.01 "Hg2 mi
6:30 PM70 °FHaze.7 mph46%30.01 "Hg2 mi
6:00 PM70 °FHaze.7 mph46%30.01 "Hg2 mi
5:30 PM73 °FHaze.10 mph38%29.98 "Hg2 mi
5:00 PM73 °FHaze.10 mph36%29.98 "Hg2 mi
4:30 PM73 °FHaze.10 mph36%29.98 "Hg2 mi
4:00 PM73 °FHaze.9 mph36%29.98 "Hg2 mi
3:30 PM73 °FHaze.9 mph36%29.98 "Hg2 mi
3:00 PM75 °FHaze.9 mph34%29.98 "Hg2 mi
2:30 PM73 °FHaze.9 mph36%30.01 "Hg2 mi
2:00 PM73 °FHaze.9 mph36%30.01 "Hg2 mi
1:30 PM73 °FHaze.10 mph36%30.01 "Hg2 mi
1:00 PM72 °FHaze.10 mph38%30.04 "Hg2 mi
12:30 PM70 °FClear.9 mph40%30.04 "Hg2 mi
12:00 PM70 °FHaze.9 mph40%30.07 "Hg1 mi
11:30 AM68 °FClear.9 mph43%30.07 "Hg1 mi
11:00 AM64 °FClear.8 mph52%30.07 "Hg1 mi
10:30 AM61 °FClear.7 mph59%30.07 "Hg1 mi
10:00 AM57 °FClear.7 mph67%30.07 "Hg1 mi
9:30 AM57 °FClear.7 mph67%30.07 "Hg1 mi
9:00 AM55 °FClear.6 mph72%30.07 "Hg1 mi
8:30 AM54 °FFog.3 mph77%30.07 "Hg1 mi
8:00 AM52 °FFog.5 mph82%30.04 "Hg1 mi
7:30 AM52 °FFog.5 mph82%30.04 "Hg1 mi
7:00 AM52 °FFog.5 mph88%30.01 "Hg1 mi
6:30 AM52 °FFog.3 mph88%30.01 "Hg1 mi
6:00 AM52 °FFog.5 mph88%30.01 "Hg1 mi
5:30 AM52 °FFog.3 mph88%30.01 "Hg1 mi
5:00 AM52 °FFog.3 mph88%30.01 "Hg1 mi
4:30 AM52 °FFog.3 mph88%30.01 "Hg1 mi
4:00 AM54 °FFog.3 mph82%30.01 "Hg5 mi
3:30 AM54 °FFog.3 mph88%30.01 "Hg1 mi
3:00 AM54 °FFog.5 mph88%30.01 "Hg1 mi
2:30 AM54 °FFog.6 mph88%30.01 "Hg1 mi
2:00 AM54 °FFog.5 mph88%30.01 "Hg1 mi
1:30 AM54 °FFog.5 mph88%30.04 "Hg1 mi
1:00 AM54 °FFog.6 mph88%30.04 "Hg1 mi
12:30 AM55 °FFog.6 mph82%30.04 "Hg1 mi
12:00 AM55 °FFog.No wind82%30.04 "Hg1 mi
11:30 PM
Sat, Feb 13
55 °FFog.No wind82%30.04 "Hg1 mi
11:00 PM57 °FFog.No wind77%30.04 "Hg1 mi
10:30 PM59 °FHaze.3 mph72%30.01 "Hg2 mi
10:00 PM59 °FHaze.3 mph72%30.01 "Hg2 mi
9:30 PM59 °FHaze.3 mph72%30.01 "Hg2 mi
9:00 PM61 °FHaze.3 mph68%30.01 "Hg2 mi
8:30 PM61 °FHaze.5 mph63%30.01 "Hg2 mi
8:00 PM61 °FHaze.6 mph63%30.01 "Hg2 mi
Weather by CustomWeather, © 2016

See weather overviewHow to use our weather pages